Regional Weather Roundup
Issued by NWS Charleston, SC

Current Version | Previous Version | Text Only | Print | Product List | Glossary Off
Versions: 1 2 3 4 5 6 7 8 9 10 11 12 13 14 15 16 17 18 19 20 21 22 23 24 25 26 27 28 29 30 31 32 33 34 35 36 37 38 39 40 41 42 43 44 45 46 47 48 49 50

071
ASUS42 KCHS 182212
RWRCHS

REGIONAL WEATHER ROUNDUP
NATIONAL WEATHER SERVICE CHARLESTON SC
600 PM EDT WED OCT 18 2017

NOTE: "FAIR" INDICATES FEW OR NO CLOUDS BELOW 12,000 FEET WITH NO
SIGNIFICANT WEATHER AND/OR OBSTRUCTIONS TO VISIBILITY.

NOT ALL STATIONS ARE QUALITY CONTROLLED. USE DATA WITH CAUTION...
ESPECIALLY DEWPOINT OBSERVATIONS.

SCZ027-030-031-034>040-042>050-182300-
...SOUTHEAST SOUTH CAROLINA...

CITY           SKY/WX    TMP DP  RH WIND       PRES   REMARKS
N CHARLESTON   PTCLDY    72  58  61 NE12      30.24R
WATERFRONT PRK   N/A     73  63  70 E10       30.08S
JOHNS ISLAND   FAIR      72  61  68 NE8       30.24R
PINOPOLIS        N/A     72  57  60 NE9       30.17F
MONCKS CORNER  FAIR      70  54  56 N6        30.25S
SUMMERVILLE    FAIR      70  55  60 N5        30.26S
BEAUFORT MCAS  PTCLDY    71  60  68 NE12      30.23S
BEAUFORT ARPT  FAIR      72  63  73 E7        30.22S HAZE
HILTON HEAD IS CLEAR     72  63  73 E8          N/A
WALTERBORO     CLEAR     70  55  60 NE5       30.26R
ALLENDALE      NOT AVBL

...SOUTHERN MIDLANDS AND PEE DEE...

CITY           SKY/WX    TMP DP  RH WIND       PRES   REMARKS
GEORGETOWN     FAIR      70  59  68 E8        30.26S
KINGSTREE      FAIR      70  50  49 CALM      30.27S
ORANGEBURG     CLEAR     70  41  34 NE6       30.26F
BARNWELL         N/A     72  43  35 NE8       30.26R
AIKEN          FAIR      68  37  32 N8        30.30S
MANNING        HAZE      70  55  60 MISG      30.27R VSB<1/4
COLUMBIA       CLEAR     72  36  26 NE7       30.27S
SUMTER         CLEAR     69  37  31 NE8       30.26S
FLORENCE       CLEAR     70  45  40 NE5       30.28S
MYRTLE BEACH   CLEAR     72  56  57 N10       30.26S
N MYRTLE BEACH CLEAR     72  55  55 NE10      30.25S

$$

GAZ063-065-086>088-099>101-113>116-118-119-134>141-150-182300-
...SOUTHEAST GEORGIA...

CITY           SKY/WX    TMP DP  RH WIND       PRES   REMARKS
SAVANNAH ARPT  PTCLDY    74  59  59 NE8       30.22S
HUNTER AAF     MOCLDY    74  61  62 E8        30.19S
FORT STEWART   CLEAR     75  57  54 NE6       30.20R
STATESBORO     CLEAR     74  49  42 E3        30.23S
SYLVANIA       CLEAR     73  56  55 E7        30.24S
CLAXTON        FAIR      75  57  54 N8        30.22S

...CSRA...CENTRAL AND FAR SOUTHEAST GEORGIA...

CITY           SKY/WX    TMP DP  RH WIND       PRES   REMARKS
THOMSON        CLEAR     70  38  30 E7        30.31S
AUGUSTA-BUSH   CLEAR     73  39  29 E8        30.25S
AUGUSTA-DANIEL CLEAR     73  38  27 NE8       30.26S
SWAINSBORO     FAIR      72  45  37 MISG      30.24S
VIDALIA        SUNNY     73  52  46 NE7       30.23R
EASTMAN        FAIR      75  13   9 NE7       30.25R
HAZLEHURST     FAIR      75  36  24 NE3       30.20S
ALMA           SUNNY     77  57  50 VRB6      30.20R
WAYCROSS       PTSUNNY   77  55  46 E10       30.19S
JESUP          NOT AVBL
BAXLEY         FAIR      73  54  49 NE6       30.20S
BRUNSWICK      CLOUDY    72  63  73 NE10      30.21R
SAINT SIMONS   MOCLDY    74  66  76 NE17      30.18F

$$

SCZ027-028-034-036>038-045-046-048>050-GAZ119-141-182300-
...LAKE AND SUPPLEMENTAL COASTAL OBSERVATIONS...

STATION/POSITION TIME  TEMP    WIND        PRES    WAVE   SWELL
                       AIR SEA DIR/SP/G            HT/PER HT/PER/DIR
                 (UTC) (F)     (DEG/KT/KT) (MB)    (FT/S) (FT/S/D)
WINYAH BAY       NOT AVBL
LAKE MURRAY      2120   71      20/  2/  7 1024.0
ACE BASIN NERRS  2045   76      20/  3     1024.0
FORT PULASKI     2136   71 75   80/ 13/ 16 1023.9R
SAPELO ISLAND    2100   73      50/ 14     1022.0

$$

ANZ835-935-AMZ111-154-330-350-352-354-370-450-454-472-182300-
...C-MAN AND BUOY OBSERVATIONS...

STATION/POSITION TIME  TEMP    WIND        PRES    WAVE   SWELL
                       AIR SEA DIR/SP/G            HT/PER HT/PER/DIR
                 (UTC) (F)     (DEG/KT/KT) (MB)    (FT/S) (FT/S/D)
BUOY 41004       2150   73 80   40/ 19/ 25 1022.5R   8/10   5/110/10
BUOY 41008       2150   72 78   50/ 21/ 25 1021.6S   7/ 7   3/120/ 9
FOLLY BEACH CMAN 2100   70      60/ 18/ 21 1024.4F
CAPERS NEARSHORE 2108   68 74   50/ 17/ 23 1023.4F
FRIPP NEARSHORE  2108   73      60/ 16/ 19   N/A


STATION/POSITION TIME  TEMP    WIND        PRES    WAVE   SWELL
                       AIR SEA DIR/SP/G            HT/PER HT/PER/DIR
                 (UTC) (F)     (DEG/KT/KT) (MB)    (FT/S) (FT/S/D)
5E ST. MARYS GA  2130      78                N/A     7/ 7   2/100/11
FRYING PAN BUOY  2150   72 77   30/ 19/ 25 1023.5R   7/10   3/140/10
BUOY 41025       2150   72 82   30/ 17/ 21 1024.1R   6/10   3/140/10
CAPE LOOKOUT NC  2100   67      20/ 17/ 21 1024.6F
BUOY 41002       2150   76 80   60/ 23/ 31 1019.7F  10/ 8
BUOY 41010       NOT AVBL
ST AUGUSTINE FL  2200   76 79   20/ 23/ 26 1020.5S


$$




USA.gov is the U.S. government's official web portal to all federal, state and local government web resources and services.